{"data":{"norad_id":56520,"epoch":"2026-05-24T23:01:48.269280Z","epoch_age_seconds":78244,"freshness":"FRESH","line1":"1 56520U 23065T   26144.95958645  .00000346  00000+0  22092-4 0  9993","line2":"2 56520  43.0008 141.7918 0001025 278.0590  82.0146 15.27576450168261","mean_motion":15.2757645,"eccentricity":0.0001025,"inclination_deg":43.0008,"raan_deg":141.7918,"arg_perigee_deg":278.059,"mean_anomaly_deg":82.0146,"bstar":2.2092e-5,"rev_number":16826,"period_min":94.266967784166,"perigee_km":482.35645337293,"apogee_km":483.76299870176,"semimajor_km":6861.1967260373,"source":"CELESTRAK","updated_at":"2026-05-25T13:38:18.109261Z"}}